星链-34340 (STARLINK-34340)

导读 | 豆包AI

STARLINK-34340是美国SpaceX星链(Starlink)互联网星座中的一颗卫星,于2025年5月27日由美国发射升空,归属星链低轨卫星互联网组网计划。星链系统旨在为全球提供高速低延迟宽带网络服务,该卫星入轨后与其他星链卫星协同工作,补充扩展全球卫星互联网覆盖范围,进一步推进SpaceX星链星座的部署进程,助力全球偏远地区及移动场景的互联网接入服务覆盖。

基本信息
目录编号:
64163
目录名称:
STARLINK-34340
国际标识:
2025-112T
轨道中心:
EARTH
卫星名称:
星链-34340
卫星全名:
星链-34340 (STARLINK-34340)
卫星状态:
在轨 (已飞行291 天)
发射日期:
2025-05-27 UTC
国别 :
美国 (US)
星等 :
--
轨道信息
数据来源 国际轨道数据
星历时间: 2026-03-14T11:03:03+0800
15小时前
查看轨道信息
半长轴: 6927.544km
偏心率: 0.0001206
轨道倾角: 97.603°
近地点辐角 136.778°
升交点赤经 125.862°
平近点角 223.355°
近地点: 548.571km
远地点: 550.243km
周期: 95.638分钟
每日圈数: 15.05684
详细信息
固有亮度:
5
最大亮度:
2.5
卫星平台:
Starlink V1.0
覆盖范围:
全球
运营商:
太空探索技术公司
运营商所在国:
美国
制造商(研发单位):
太空探索技术公司
制造商所在国:
美国
使用方式:
暂无
卫星简介
Starlink 计划是 SpaceX 推出的全球卫星互联网项目,通过发射低轨道卫星,为全球尤其是偏远地区提供高速、低延迟的互联网服务。自 2019 年起,Starlink 已部署数千颗卫星,旨在缩小全球数字鸿沟,推动互联网普及。该项目还为军事、航空等行业提供通信支持,带来广泛经济效益。
2D轨道图
3D轨道图
轨道高度分析图
轨道倾角分析图
轨道综合分析图
查看轨道综合分析图